Date String (YYYY-MM-DD hh:mm:ss) UTC,Instrument flags,Ambient pressure (hPa),Sample flow (lpm),Bypass flow (lpm),Sample temperature (°C),Ambient temperature (°C),ASC tube jacket temperature (°C),LED temperature (°C),Box temperature (°C),Sample RH (%),Span deviation,Mass concentration (μg/m³),Mass concentration (μg/m³),Mass concentration (μg/m³)
DateTimeUTC,F1_M11,P_M11,Q1_M11,Q2_M11,T1_M11,T2_M11,T3_M11,T4_M11,T5_M11,U1_M11,ZSPAN_M11,X0_M11,X2_M11,X1_M11
2022-07-29 14:00:00,,0831.2,4.99,0.00,31.5,29.0,00.0,39.9,32.4,34.3,-001.1,0012.56,0009.17,0008.64
2022-07-29 14:01:00,,0831.2,5.00,0.00,31.5,29.1,00.0,39.9,32.5,34.2,-000.9,0012.59,0009.15,0008.60
2022-07-29 14:02:00,,0831.2,5.00,0.00,31.5,29.2,00.0,39.9,32.5,34.0,-001.0,0012.65,0009.16,0008.60
2022-07-29 14:03:00,,0831.2,5.01,0.00,31.4,29.2,00.0,39.9,32.5,34.3,-001.2,0012.58,0009.16,0008.62
2022-07-29 14:04:00,,0831.2,4.99,0.00,31.4,29.2,00.0,39.9,32.5,34.4,-001.6,0012.41,0009.11,0008.61
2022-07-29 14:05:00,,0831.2,5.01,0.00,31.4,29.0,00.0,39.9,32.5,34.8,-001.8,0012.27,0009.08,0008.59
2022-07-29 14:06:00,,0831.3,5.00,0.00,31.4,28.3,00.0,39.9,32.3,34.5,-001.7,0012.22,0009.08,0008.59
2022-07-29 14:07:00,,0831.3,5.01,0.00,31.3,27.8,00.0,39.8,32.2,34.7,-001.6,0012.22,0009.10,0008.61
2022-07-29 14:08:00,,0831.3,4.98,0.00,31.2,27.7,00.0,39.8,32.1,34.9,-001.4,0012.19,0009.08,0008.61
2022-07-29 14:09:00,,0831.2,5.02,0.00,31.2,27.8,00.0,39.7,32.1,35.5,-001.6,0012.07,0009.05,0008.60
2022-07-29 14:10:00,,0831.2,5.00,0.00,31.3,27.9,00.0,39.7,32.2,35.2,-001.6,0012.08,0009.03,0008.57
2022-07-29 14:11:00,,0831.3,5.00,0.00,31.6,28.1,00.0,39.7,32.4,34.8,-001.8,0012.12,0009.00,0008.53
2022-07-29 14:12:00,,0831.3,4.99,0.00,31.7,28.2,00.0,39.7,32.4,34.2,-001.8,0011.99,0008.94,0008.50
2022-07-29 14:13:00,,0831.3,5.01,0.00,31.8,28.4,00.0,39.7,32.4,34.1,-001.6,0011.92,0008.87,0008.43
2022-07-29 14:14:00,,0831.2,5.00,0.00,31.8,28.5,00.0,39.8,32.4,34.4,-001.8,0012.57,0008.85,0008.39
2022-07-29 14:15:00,,0831.3,4.99,0.00,31.8,28.6,00.0,39.8,32.4,34.1,-001.6,0012.72,0008.87,0008.38
2022-07-29 14:16:00,,0831.2,5.00,0.00,31.7,28.7,00.0,39.8,32.4,34.0,-001.6,0012.98,0008.88,0008.39
2022-07-29 14:17:00,,0831.2,5.00,0.00,31.7,28.8,00.0,39.9,32.4,34.2,-001.6,0012.99,0008.85,0008.38
2022-07-29 14:18:00,,0831.2,5.00,0.00,31.7,28.9,00.0,39.9,32.4,34.4,-001.8,0013.17,0008.83,0008.35
2022-07-29 14:19:00,,0831.2,5.00,0.00,31.7,29.0,00.0,39.9,32.4,34.9,-001.8,0013.13,0008.78,0008.28
2022-07-29 14:20:00,,0831.2,5.00,0.00,31.7,29.0,00.0,39.9,32.5,34.6,-001.7,0013.14,0008.78,0008.26
2022-07-29 14:21:00,,0831.2,5.00,0.00,31.8,29.1,00.0,40.0,32.5,34.9,-001.7,0013.19,0008.81,0008.27
2022-07-29 14:22:00,,0831.3,5.00,0.00,31.8,29.2,00.0,40.0,32.6,34.5,-001.7,0013.20,0008.86,0008.32
2022-07-29 14:23:00,,0831.3,4.99,0.00,31.8,29.2,00.0,40.0,32.6,34.6,-001.6,0013.19,0008.89,0008.36
2022-07-29 14:24:00,,0831.3,5.01,0.00,31.8,29.3,00.0,40.0,32.6,34.6,-001.8,0013.16,0008.90,0008.39
2022-07-29 14:25:00,,0831.3,5.01,0.00,31.8,29.2,00.0,40.1,32.6,34.6,-001.8,0012.64,0008.94,0008.45
2022-07-29 14:26:00,,0831.2,5.00,0.00,31.8,28.6,00.0,40.0,32.5,35.0,-001.6,0012.68,0008.97,0008.48
2022-07-29 14:27:00,,0831.3,5.00,0.00,31.8,28.0,00.0,40.0,32.4,34.5,-001.4,0012.60,0008.99,0008.50
2022-07-29 14:28:00,,0831.3,4.99,0.00,31.8,27.9,00.0,40.0,32.4,34.7,-001.5,0012.69,0009.03,0008.52
2022-07-29 14:29:00,,0831.3,4.99,0.00,31.7,27.9,00.0,40.0,32.3,34.8,-001.4,0012.47,0009.03,0008.55
2022-07-29 14:30:00,,0831.3,5.00,0.00,31.6,28.0,00.0,39.9,32.2,34.8,-001.1,0012.45,0009.04,0008.59
2022-07-29 14:31:00,,0831.2,5.00,0.00,31.6,28.1,00.0,39.9,32.3,35.6,-000.6,0012.47,0009.05,0008.60
2022-07-29 14:32:00,,0831.2,5.00,0.00,31.8,28.3,00.0,39.9,32.4,35.0,-000.5,0012.42,0009.02,0008.59
2022-07-29 14:33:00,,0831.2,4.99,0.00,31.9,28.4,00.0,39.9,32.5,34.3,-000.4,0012.32,0008.97,0008.57
2022-07-29 14:34:00,,0831.2,5.01,0.00,32.0,28.6,00.0,39.9,32.5,34.2,-000.3,0012.32,0008.96,0008.56
2022-07-29 14:35:00,,0831.2,5.00,0.00,32.0,28.7,00.0,40.0,32.5,34.3,-000.2,0012.46,0008.97,0008.55
2022-07-29 14:36:00,,0831.3,4.99,0.00,32.0,28.8,00.0,40.0,32.5,34.5,-000.2,0012.52,0008.97,0008.53
2022-07-29 14:37:00,,0831.2,5.00,0.00,32.0,28.9,00.0,40.0,32.5,34.7,-000.4,0012.52,0008.99,0008.54
2022-07-29 14:38:00,,0831.2,5.00,0.00,32.0,29.0,00.0,40.1,32.6,35.4,-000.3,0012.41,0008.98,0008.53
2022-07-29 14:39:00,,0831.2,5.00,0.00,32.2,29.1,00.0,40.1,32.7,35.0,0000.3,0012.61,0008.97,0008.51
2022-07-29 14:40:00,,0831.2,5.01,0.00,32.4,29.1,00.0,40.1,32.8,34.6,0000.5,0012.72,0008.96,0008.47
2022-07-29 14:41:00,,0831.3,5.00,0.00,32.5,29.2,00.0,40.2,32.8,34.5,0000.4,0012.95,0008.95,0008.43
2022-07-29 14:42:00,,0831.2,5.00,0.00,32.5,29.3,00.0,40.2,32.8,34.3,0000.0,0013.02,0008.97,0008.41
2022-07-29 14:43:00,,0831.3,5.01,0.00,32.5,28.9,00.0,40.3,32.8,34.2,0000.2,0013.03,0008.99,0008.42
2022-07-29 14:44:00,,0831.2,4.99,0.00,32.4,28.3,00.0,40.3,32.6,34.0,0000.1,0013.20,0009.04,0008.46
2022-07-29 14:45:00,,0831.2,5.00,0.00,32.4,28.0,00.0,40.3,32.5,34.0,-000.1,0013.25,0009.08,0008.50
2022-07-29 14:46:00,,0831.2,5.01,0.00,32.2,28.0,00.0,40.3,32.4,34.1,-000.2,0013.18,0009.11,0008.55
2022-07-29 14:47:00,,0831.2,5.01,0.00,32.1,28.0,00.0,40.3,32.4,34.3,-000.2,0013.04,0009.11,0008.58
2022-07-29 14:48:00,,0831.2,5.00,0.00,32.0,28.1,00.0,40.2,32.4,34.5,-000.1,0013.04,0009.10,0008.58
2022-07-29 14:49:00,,0831.2,4.99,0.00,31.9,28.3,00.0,40.2,32.4,34.7,-000.2,0013.16,0009.16,0008.60
2022-07-29 14:50:00,,0831.2,4.99,0.00,31.8,28.4,00.0,40.2,32.4,35.1,-000.8,0013.52,0009.19,0008.61
2022-07-29 14:51:00,,0831.2,5.00,0.00,31.9,28.6,00.0,40.2,32.5,35.0,-001.0,0013.47,0009.19,0008.61
2022-07-29 14:52:00,,0831.2,4.99,0.00,32.1,28.7,00.0,40.2,32.6,34.4,-001.2,0013.35,0009.19,0008.60
2022-07-29 14:53:00,,0831.2,5.00,0.00,32.2,28.8,00.0,40.2,32.6,34.5,-001.4,0013.22,0009.11,0008.55
2022-07-29 14:54:00,,0831.2,5.00,0.00,32.2,28.9,00.0,40.2,32.6,34.5,-001.5,0013.20,0009.11,0008.55
2022-07-29 14:55:00,,0831.1,5.00,0.00,32.2,29.0,00.0,40.2,32.6,34.2,-001.4,0013.15,0009.12,0008.55
2022-07-29 14:56:00,,0831.2,5.01,0.00,32.1,29.1,00.0,40.3,32.6,33.9,-001.2,0013.12,0009.12,0008.54
2022-07-29 14:57:00,,0831.2,5.00,0.00,32.1,29.1,00.0,40.3,32.7,33.8,-001.0,0013.10,0009.10,0008.51
2022-07-29 14:58:00,,0831.2,5.01,0.00,32.1,29.1,00.0,40.3,32.6,34.0,-001.0,0013.22,0009.05,0008.46
2022-07-29 14:59:00,,0831.3,4.99,0.00,32.0,28.6,00.0,40.3,32.5,33.5,-001.0,0013.18,0009.00,0008.43
